Location: Union
(38.3213°N, 122.3100°W)
Time: 13:03:53
(UTC+00:00)

Daily predictions for brighter satellites

Satellite Brightness Start Highest point End
(mag) Time Altitude Azimuth Time Altitude Azimuth Time Altitude Azimuth
CZ-4C R/B 4.2 12:15:34 17° N 12:15:34 17° N 12:17:26 10° NNE
Cosmos 2237 Rocket 4.3 12:32:12 14° N 12:32:12 14° N 12:33:14 10° N
USA 229 DEB 3.7 12:33:26 58° NW 12:35:06 79° WSW 12:42:44 10° SSE
USA 229 3.7 12:33:29 57° NW 12:35:11 80° WSW 12:42:49 10° SSE
Lacrosse 4 Rocket 4.2 12:41:57 10° SSE 12:41:57 10° SSE 12:41:58 10° SSE
Cosmos 1934 Rocket 3.8 12:31:26 10° N 12:37:44 81° W 12:44:05 10° S
NOSS 3-1 (A) 4.2 12:36:43 23° NNW 12:42:08 80° ENE 12:50:55 10° SE
STARLINK-1061 4.5 12:44:08 48° E 12:44:08 48° E 12:47:24 10° ESE
GEOS 3 Rocket 3.5 12:41:52 10° NNE 12:47:07 71° NW 12:47:07 71° NW
STARLINK-1067 4.2 12:48:54 56° E 12:48:54 56° E 12:52:23 10° ESE
USA 267 3.9 12:43:06 10° SSE 12:47:58 37° SSW 12:47:58 37° SSW
Meteor 2-10 Rocket 4.3 12:53:18 38° NNW 12:53:18 38° NNW 12:56:41 10° N
STARLINK-1058 3.9 12:53:42 65° E 12:53:42 65° E 12:57:25 10° SE
Lacrosse 5 3.4 12:54:38 19° NNW 12:57:26 30° NE 13:01:53 10° E
STARLINK-1043 3.7 12:58:27 76° E 12:58:27 76° E 13:02:23 10° SE
Cosmos 292 Rocket 3.7 12:56:30 37° NNW 12:58:22 82° ENE 13:03:06 10° SSE
Cosmos 1605 Rocket 3.8 12:52:23 10° N 12:58:39 85° W 13:04:46 10° S
STARLINK-1065 3.5 13:02:32 85° ENE 13:02:32 85° ENE 13:06:36 10° SE
CZ-2C R/B 3.3 13:01:17 10° N 13:04:43 34° NNW 13:04:43 34° NNW
Cosmos 1943 Rocket 2.9 13:01:02 10° NNW 13:06:25 52° ENE 13:11:46 10° SE
Meteor PRIRODA 3.7 13:03:04 10° NNE 13:06:46 75° E 13:07:43 47° S
STARLINK-1063 3.4 13:08:01 81° WNW 13:08:12 85° SW 13:12:20 10° SE
Cosmos 2297 3.7 13:07:44 45° WNW 13:08:59 54° WSW 13:14:27 10° S
Shenzhou-11 Module 3.8 13:10:15 27° ESE 13:10:15 27° ESE 13:11:51 10° E
Cosmos 1500 Rocket 4.3 13:05:13 10° N 13:09:34 52° E 13:13:50 10° SSE
SL-16 R/B 3.0 13:11:09 32° NW 13:11:09 32° NW 13:15:31 10° N
Cosmos 407 Rocket 4.1 13:05:51 10° S 13:11:05 60° ESE 13:16:18 10° NNE
Okean O Rocket 3.9 13:08:39 10° NE 13:12:15 25° E 13:15:50 10° SSE
STARLINK-1064 3.4 13:12:45 70° W 13:13:06 77° SW 13:17:14 10° SE
Cosmos 1484 Rocket 2.6 13:11:22 10° N 13:15:18 76° WNW 13:17:17 29° SSW
STARLINK-1041 3.5 13:17:35 60° W 13:18:08 70° SW 13:22:14 10° SE
ATLAS CENTAUR R/B 3.5 13:20:25 17° NNW 13:20:25 17° NNW 13:22:15 10° N
Cosmos 1727 Rocket 3.8 13:14:09 10° SSW 13:20:20 75° W 13:26:31 10° N
CZ-4B R/B 3.8 13:16:58 10° N 13:19:02 29° NNW 13:19:02 29° NNW
Cosmos 1743 Rocket 3.6 13:16:48 10° N 13:21:09 79° E 13:25:27 10° S
STARLINK-1038 3.6 13:22:16 52° W 13:23:00 63° SW 13:27:04 10° SE
Cosmos 1603 3.6 13:20:41 10° SSW 13:26:25 86° WNW 13:32:09 10° NNE
STARLINK-1144 4.4 13:24:13 18° SSW 13:26:54 48° SE 13:30:45 10° ENE
Cosmos 1633 4.4 13:23:49 10° NNE 13:27:08 32° ENE 13:30:25 10° SE
FENGYUN 3A 3.7 13:21:54 10° NNE 13:27:22 85° ESE 13:32:48 10° SSW
H-2A R/B 3.1 13:23:38 10° N 13:27:43 38° WNW 13:28:06 37° W
STARLINK-1046 3.7 13:27:07 44° W 13:28:02 56° SW 13:32:04 10° SSE
Cosmos 2369 Rocket 2.7 13:22:41 10° NNW 13:28:22 63° ENE 13:34:01 10° SSE
PSLV R/B 3.5 13:24:41 10° N 13:28:26 82° WNW 13:32:14 10° SSW
Cosmos 1842 Rocket 3.8 13:26:57 17° SSW 13:30:04 47° W 13:34:24 10° N
STARLINK-1103 4.2 13:28:28 17° SSW 13:31:17 53° SE 13:35:11 10° ENE
BREEZE-M DEB (TANK) 3.6 13:24:15 10° SW 13:32:44 64° SE 13:35:43 10° ENE
STARLINK-1039 3.8 13:31:53 39° W 13:32:58 50° SW 13:36:58 10° SSE
Cosmos 1943 3.2 13:27:38 10° SSW 13:33:14 83° ESE 13:38:53 10° NNE
Cosmos 1190 Rocket 4.1 13:28:06 10° SSW 13:33:21 82° ESE 13:38:40 10° NNE
Cosmos 1238 4.1 13:31:32 10° S 13:34:40 86° ESE 13:37:41 10° N
ALOS 2.1 13:30:09 10° N 13:34:49 75° WNW 13:39:28 10° SSW
Cosmos 2173 Rocket 4.3 13:28:38 10° N 13:34:55 69° E 13:41:04 10° SSE
CZ-4B DEB 4.3 13:29:37 10° NNE 13:35:07 78° ESE 13:40:34 10° S
ADEOS Rocket 4.3 13:29:42 10° SE 13:35:23 43° ENE 13:41:42 10° N
STARLINK-1101 4.0 13:32:56 16° SSW 13:35:56 59° SE 13:39:52 10° NE
STARLINK-1128 3.8 13:34:50 17° SSW 13:37:44 64° SE 13:41:40 10° NE
STARLINK-1045 4.0 13:36:42 34° W 13:37:58 45° SW 13:41:54 10° SSE
Meteor 2-3 Rocket 3.8 13:34:02 10° NNW 13:39:40 56° W 13:45:18 10° S
STARLINK-1102 3.8 13:37:19 15° SW 13:40:28 66° SE 13:44:26 10° NE
STARLINK-1113 3.7 13:38:56 16° SW 13:42:00 70° SE 13:45:57 10° NE
STARLINK-1050 4.1 13:41:36 29° W 13:43:00 39° SW 13:46:52 10° SSE
Cosmos 614 Rocket 4.0 13:38:48 10° SSW 13:43:51 59° WNW 13:48:59 10° N
STARLINK-1111 3.7 13:41:44 14° SW 13:45:03 73° SE 13:49:03 10° NE
COSMO-SKYMED 1 2.6 13:41:39 10° S 13:45:55 59° W 13:50:13 10° NNW
CZ-4B R/B 3.7 13:40:57 10° NNE 13:46:13 60° ESE 13:51:25 10° S
STARLINK-1119 3.6 13:43:11 15° SW 13:46:26 77° SE 13:50:24 10° NE
Cosmos 2100 Rocket 3.9 13:41:29 10° N 13:47:43 87° W 13:53:52 10° S
STARLINK-1055 4.3 13:46:21 26° W 13:47:55 35° SW 13:51:43 10° SSE
STARLINK-1073 3.6 13:46:08 13° SW 13:49:39 80° SE 13:53:40 10° NE
USA 116 3.3 13:46:52 10° SSE 13:50:10 77° ENE 13:53:18 10° N
Cosmos 676 Rocket 4.4 13:45:14 10° S 13:50:29 69° ESE 13:55:48 10° NNE
STARLINK-1114 3.5 13:47:13 14° SW 13:50:36 84° SE 13:54:34 10° NE
STARLINK-1022 4.4 13:51:03 23° W 13:52:47 32° SW 13:56:29 10° SSE
STARLINK-1121 3.5 13:50:32 12° SW 13:54:12 88° SSE 13:58:14 10° NE
Cosmos 921 Rocket 3.3 13:50:01 10° NNW 13:54:27 72° ENE 13:58:45 10° SSE
Cosmos 1000 Rocket 4.4 13:48:22 10° SSW 13:54:29 75° W 14:00:43 10° N
Cosmos 1400 Rocket 3.9 13:50:49 10° S 13:54:37 47° E 13:58:32 10° NNE
Meteor 2-2 Rocket 4.4 13:48:51 10° SSW 13:54:46 63° W 14:00:47 10° N
STARLINK-1130 (DARKSAT) 3.4 13:51:33 12° SW 13:55:08 89° NW 13:59:08 10° NE
Cosmos 2061 Rocket 4.3 13:50:27 10° N 13:56:44 72° E 14:02:55 10° SSE
Cosmos 1869 3.6 13:53:25 10° SSW 13:57:16 44° W 14:01:06 10° N
STARLINK-1106 3.5 13:55:01 11° SW 13:58:53 84° NW 14:02:55 10° NE
STARLINK-1084 3.4 13:55:45 11° SW 13:59:31 82° NW 14:03:30 10° NE
Cosmos 2221 3.4 13:56:30 10° SW 14:00:09 27° WNW 14:03:50 10° NNW
STARLINK-1112 3.5 13:59:34 10° SW 14:03:35 77° NW 14:07:36 10° NE
Cosmos 1459 Rocket 4.0 13:59:51 10° NNW 14:05:59 68° W 14:12:11 10° S
NOAA 6 4.0 14:02:14 10° N 14:07:25 74° WNW 14:12:32 10° SSW
PAYLOAD B 4.2 14:02:58 10° N 14:08:29 62° WNW 14:13:55 10° SSW
Cosmos 2123 Rocket 4.1 14:05:08 10° S 14:11:27 89° E 14:17:48 10° N
Cosmos 1725 Rocket 4.3 14:06:38 10° N 14:12:54 75° E 14:19:11 10° SSE
Helios 1A Rocket 3.0 14:09:20 10° NNE 14:13:29 84° E 14:17:36 10° SSW
SMAP 3.9 14:11:19 10° NNE 14:15:54 57° E 14:20:28 10° S
BREEZE M DEB (TANK) 3.9 14:08:54 10° WNW 14:17:06 33° WSW 14:20:13 10° S
DELTA 2 R/B (1) 4.1 14:12:02 10° WSW 14:17:30 60° SSE 14:22:59 10° E
Cosmos 1802 Rocket 4.1 14:14:30 10° NNW 14:20:51 64° W 14:27:10 10° S
STARLINK-1070 4.1 14:19:45 11° W 14:21:57 23° NNW 14:24:24 10° NNE
STARLINK-1124 4.4 14:20:55 11° WNW 14:22:57 20° NNW 14:25:13 10° NNE
STARLINK-1066 4.1 14:20:57 11° W 14:23:13 23° NNW 14:25:38 10° NNE
STARLINK-1081 4.1 14:21:11 11° W 14:23:27 23° NNW 14:25:52 10° NNE
STARLINK-1069 4.1 14:21:37 11° W 14:23:54 22° NNW 14:26:19 10° NNE
STARLINK-1085 4.1 14:21:47 11° W 14:24:05 22° NNW 14:26:29 10° NNE
STARLINK-1086 4.2 14:22:00 10° W 14:24:18 22° NNW 14:26:43 10° NNE
STARLINK-1095 4.2 14:22:15 10° W 14:24:35 22° NNW 14:26:58 10° NNE
STARLINK-1077 4.2 14:22:30 10° W 14:24:49 22° NNW 14:27:13 10° NNE
STARLINK-1075 4.2 14:22:44 10° W 14:25:04 22° NNW 14:27:27 10° NNE
STARLINK-1093 4.2 14:22:55 10° W 14:25:16 22° NNW 14:27:39 10° NNE
STARLINK-1074 4.2 14:23:08 10° W 14:25:30 22° NNW 14:27:53 10° NNE
STARLINK-1087 4.2 14:23:23 10° W 14:25:44 22° NNW 14:28:07 10° NNE
STARLINK-1088 4.2 14:23:36 10° W 14:25:57 22° NNW 14:28:19 10° NNE
STARLINK-1115 4.2 14:23:48 10° W 14:26:09 22° NNW 14:28:31 10° NNE
STARLINK-1076 4.2 14:24:01 10° W 14:26:22 22° NNW 14:28:44 10° NNE
STARLINK-1092 4.2 14:24:14 10° W 14:26:34 21° NNW 14:28:55 10° NNE
STARLINK-1080 4.2 14:24:31 10° W 14:26:51 21° NNW 14:29:13 10° NNE
STARLINK-1090 4.2 14:24:42 10° W 14:27:03 21° NNW 14:29:24 10° NNE
STARLINK-1089 4.2 14:24:58 10° W 14:27:17 21° NNW 14:29:38 10° NNE
STARLINK-1107 4.2 14:25:12 10° W 14:27:31 21° NNW 14:29:51 10° NNE
STARLINK-1109 4.2 14:25:26 10° W 14:27:46 21° NNW 14:30:06 10° NNE
STARLINK-1091 4.2 14:25:41 10° W 14:27:59 21° NNW 14:30:19 10° NNE
STARLINK-1072 4.3 14:25:53 10° W 14:28:12 21° NNW 14:30:32 10° NNE
STARLINK-1096 4.3 14:26:06 10° W 14:28:23 21° NNW 14:30:41 10° NNE
STARLINK-1079 4.3 14:26:20 10° W 14:28:38 21° NNW 14:30:58 10° NNE
STARLINK-1116 4.3 14:26:33 10° W 14:28:52 21° NNW 14:31:11 10° NNE
STARLINK-1094 4.3 14:27:02 10° W 14:29:20 20° NNW 14:31:38 10° NNE
STARLINK-1117 4.3 14:27:15 10° W 14:29:32 20° NNW 14:31:50 10° NNE
STARLINK-1078 4.3 14:27:30 10° W 14:29:47 20° NNW 14:32:05 10° NNE
STARLINK-1108 4.3 14:27:44 10° W 14:30:01 20° NNW 14:32:17 10° NNE
STARLINK-1071 4.3 14:27:57 10° W 14:30:12 20° NNW 14:32:29 10° NNE
STARLINK-1110 4.3 14:28:11 10° W 14:30:27 20° NNW 14:32:44 10° NNE
STARLINK-1122 4.3 14:28:38 10° W 14:30:54 20° NNW 14:33:11 10° NNE
STARLINK-1118 4.3 14:29:23 10° WNW 14:31:07 16° NNW 14:32:52 10° NNE
STARLINK-1126 4.3 14:28:52 10° W 14:31:08 20° NNW 14:33:25 10° NNE
STARLINK-1082 4.3 14:29:05 10° W 14:31:20 20° NNW 14:33:36 10° NNE
STARLINK-1100 4.3 14:29:21 10° W 14:31:36 20° NNW 14:33:51 10° NNE
STARLINK-1083 4.3 14:29:33 10° W 14:31:48 20° NNW 14:34:03 10° NNE
STARLINK-1125 4.4 14:29:48 10° W 14:32:02 20° NNW 14:34:17 10° NNE
SL-08 R/B 4.4 14:26:03 10° N 14:32:11 74° W 14:38:13 10° S
Cosmos 1864 Rocket 4.5 14:27:11 10° N 14:33:18 75° W 14:39:26 10° S
H-2A R/B 2.6 14:29:54 10° N 14:33:38 64° WNW 14:37:17 10° SSW
Cosmos 1862 3.4 14:30:48 10° NNW 14:34:41 55° W 14:38:32 10° S
Cosmos 1238 Rocket 3.9 14:29:47 10° NNW 14:35:38 51° W 14:40:35 10° SSW
